This demonstration page uses our WeatherBlox Daily Observations layout. Learn more.

Left ArrowRight Arrow

39.01783, -85.05884

Hourly Observations for June 29, 2015

Temp ( °F °C ) Dew Point ( °F °C ) Humidity (%) Winds ( mph kmh ) Pressure ( in mb ) Visibility ( mi km ) Precip ( " mm )
12:52 am 00:52 Cloudy 67 19.4 56 13.3 68 68 S 6 9 29.90 1013 10 16 N/A
1:52 am 01:52 Cloudy 67 19.4 54 12.2 63 63 S 6 9 29.88 1012 10 16 N/A
2:52 am 02:52 Cloudy 66 18.9 55 12.8 68 68 S 5 7 29.87 1011 10 16 N/A
3:52 am 03:52 Cloudy 66 18.9 55 12.8 68 68 SSW 5 7 29.86 1011 10 16 N/A
4:52 am 04:52 Cloudy with Light Rain 66 18.9 56 13.3 70 70 N N/A 29.85 1011 7 11 0.01 0.25
5:52 am 05:52 Cloudy with Light Rain 62 16.7 60 15.6 93 93 NE 7 11 29.87 1011 5 8 0.15 3.81
6:52 am 06:52 Cloudy with Light Rain 62 16.7 60 15.6 93 93 E 10 17 29.85 1011 8 13 0.02 0.51
7:47 am 07:47 Cloudy with Rain 63 17 59 15 88 88 SE 10 17 29.85 1011 2 3 0.04 1.02
7:52 am 07:52 Cloudy with Light Rain 62 16.7 59 15 90 90 SE 14 22 29.85 1011 3 5 0.05 1.27
8:21 am 08:21 Cloudy with Rain 63 17 59 15 88 88 SSE 12 19 29.85 1011 2 2 0.04 1.02
8:30 am 08:30 Cloudy with Light Rain 61 16 59 15 94 94 ESE 10 17 29.85 1011 5 8 N/A
8:52 am 08:52 Cloudy with Light Rain 62 16.7 59 15 90 90 SE 13 20 29.84 1011 9 14 0.24 6.10
9:52 am 09:52 Cloudy with Light Rain 63 17.2 60 15.6 90 90 SSE 10 17 29.84 1010 6 10 0.03 0.76
10:00 am 10:00 Cloudy with Rain 63 17 61 16 94 94 SSE 12 19 29.83 1010 2 3 0.03 0.76
10:07 am 10:07 Cloudy with Heavy Rain 63 17 61 16 94 94 SSE 14 22 29.83 1010 3 4 0.09 2.29
10:30 am 10:30 Cloudy with Light Rain 63 17 61 16 94 94 SSE 9 15 29.80 1009 4 6 N/A
10:52 am 10:52 Cloudy 63 17.2 60 15.6 90 90 SSE 9 15 29.82 1010 10 16 0.09 2.29
11:52 am 11:52 Cloudy with Mist and Fog 64 17.8 62 16.7 93 93 SSE 6 9 29.81 1010 6 10 N/A
12:52 pm 12:52 Cloudy 68 20 65 18.3 90 90 S 7 11 29.81 1009 9 14 N/A
1:39 pm 13:39 Mostly Cloudy 72 22 66 19 83 83 SSW 9 15 29.80 1009 10 16 N/A
1:52 pm 13:52 Partly Cloudy 74 23.3 67 19.4 79 79 SSW 7 11 29.80 1009 9 14 N/A
2:20 pm 14:20 Mostly Cloudy 75 24 66 19 74 74 SSW 12 19 29.80 1009 9 14 N/A
2:52 pm 14:52 Partly Cloudy 77 25 68 20 74 74 WSW 7 11 29.78 1008 10 16 N/A
3:52 pm 15:52 Partly Cloudy 79 26.1 66 18.9 65 65 SW 10 17 29.75 1008 10 16 N/A
4:52 pm 16:52 Mostly Cloudy 79 26.1 66 18.9 65 65 VRB 6 9 29.74 1007 10 16 N/A
5:28 pm 17:28 Mostly Cloudy 77 25 66 19 69 69 NW 10 17 29.74 1007 10 16 N/A
5:52 pm 17:52 Mostly Cloudy 75 23.9 65 18.3 71 71 NW 12 19 29.76 1008 10 16 N/A
6:52 pm 18:52 Mostly Cloudy 74 23.3 67 19.4 79 79 SW 5 7 29.77 1008 10 16 N/A
7:52 pm 19:52 Mostly Cloudy 75 23.9 65 18.3 71 71 W 13 20 29.78 1009 10 16 N/A
8:52 pm 20:52 Mostly Cloudy 71 21.7 65 18.3 81 81 W 6 9 29.80 1009 9 14 N/A
9:52 pm 21:52 Partly Cloudy 70 21.1 65 18.3 84 84 WSW 3 6 29.80 1009 9 14 N/A
10:52 pm 22:52 Partly Cloudy 69 20.6 65 18.3 87 87 SW 3 6 29.82 1010 9 14 N/A
11:52 pm 23:52 Partly Cloudy 68 20 65 18.3 90 90 SW 6 9 29.83 1010 7 11 N/A

Powered by AerisWeather